FW6806 Weather Reports


time (UTC)temp
F
wind
direction
speed
knots
gust
knots
rain 1hr
in
rain 24hr
in
rain mn
in
humidity
%
barometer
mb
20260504081523 48 360 3.5 7.8 0.00 0.00 0.00 71 1013.1
20260504044533 52 360 1.7 4.3 0.00 0.00 0.00 49 1012.7
20260504043024 52 360 1.7 4.3 0.00 0.00 0.00 48 1012.5
20260504041548 52 360 1.7 4.3 0.00 0.00 0.00 48 1012.3
20260504040103 52 360 2.6 4.3 0.00 0.00 0.00 48 1012.3
20260504034608 53 360 2.6 5.2 0.00 0.00 0.00 47 1012.2
20260504033043 52 360 1.7 5.2 0.00 0.00 0.00 47 1012.1
20260504031545 52 360 1.7 4.3 0.00 0.00 0.00 47 1012.1
20260504024538 53 360 0.9 4.3 0.00 0.00 0.00 46 1012.2
20260504023037 53 360 2.6 5.2 0.00 0.00 0.00 46 1012.2
20260504021536 53 360 2.6 5.2 0.00 0.00 0.00 46 1012.2
20260504020036 53 360 1.7 4.3 0.00 0.00 0.00 46 1012.1
20260504014535 53 360 0.9 3.5 0.00 0.00 0.00 46 1012.1
20260504013045 54 360 1.7 3.5 0.00 0.00 0.00 45 1011.8
20260504011533 54 360 1.7 3.5 0.00 0.00 0.00 44 1011.7
20260504010032 55 360 1.7 3.5 0.00 0.00 0.00 43 1011.5
20260504004530 55 360 1.7 3.5 0.00 0.00 0.00 43 1011.2
20260504003031 56 360 1.7 3.5 0.00 0.00 0.00 41 1011.1
20260504001528 57 360 0.9 3.5 0.00 0.00 0.00 39 1010.8
20260504000028 58 360 1.7 7.0 0.00 0.00 0.00 38 1010.8
20260503234527 59 360 4.3 10.4 0.00 0.00 0.00 36 1010.7
20260503233024 59 150 4.3 9.6 0.00 0.00 0.00 35 1010.6
20260503231524 60 144 3.5 8.7 0.00 0.00 0.00 35 1010.5
20260503230024 60 123 6.1 9.6 0.00 0.00 0.00 34 1010.5
20260503224525 60 185 4.3 13.0 0.00 0.00 0.00 34 1010.6
20260503224523 60 184 4.3 13.0 0.00 0.00 0.00 34 1010.6
20260503223053 61 135 7.0 11.3 0.00 0.00 0.00 33 1010.5
20260503221553 60 140 7.0 13.9 0.00 0.00 0.00 32 1010.6
20260503220049 60 134 7.0 15.6 0.00 0.00 0.00 32 1010.6
20260503214559 60 136 7.8 15.6 0.00 0.00 0.00 32 1010.6
20260503213049 60 143 7.0 16.5 0.00 0.00 0.00 32 1010.6
20260503211552 60 209 6.1 14.8 0.00 0.00 0.00 33 1010.6
20260503210043 60 153 10.4 14.8 0.00 0.00 0.00 33 1010.6
20260503204553 59 161 8.7 18.2 0.00 0.00 0.00 34 1010.6
20260503203047 60 94 4.3 13.9 0.00 0.00 0.00 34 1010.8
20260503201540 59 360 8.7 20.9 0.00 0.00 0.00 35 1011.0
20260503200009 58 360 10.4 17.4 0.00 0.00 0.00 35 1011.2
20260503194508 59 86 5.2 18.2 0.00 0.00 0.00 35 1011.1
20260503193041 58 184 7.0 15.6 0.00 0.00 0.00 36 1011.5
20260503191536 58 360 6.1 15.6 0.00 0.00 0.00 34 1011.7
20260503190044 59 360 6.1 13.0 0.00 0.00 0.00 33 1011.7
20260503184532 58 140 7.8 14.8 0.00 0.00 0.00 34 1011.8
20260503183032 58 360 9.6 16.5 0.00 0.00 0.00 34 1012.1
20260503181528 57 360 7.0 13.9 0.00 0.00 0.00 34 1012.1
20260503180036 56 360 9.6 20.0 0.00 0.00 0.00 32 1012.1
20260503174522 57 360 6.1 13.0 0.00 0.00 0.00 36 1012.2
20260503173018 56 214 3.5 13.9 0.00 0.00 0.00 36 1012.3
20260503171531 55 167 7.0 15.6 0.00 0.00 0.00 38 1012.5